Time,TemperatureF,DewpointF,PressureIn,WindDirection,WindDirectionDegrees,WindSpeedMPH,WindSpeedGustMPH,Humidity,HourlyPrecipIn,Conditions,Clouds,dailyrainin,SoftwareType,DateUTC
2016-12-10 00:00:00,31.8,30.0,30.44,South,190,0.0,0.0,94,0.00,,,0.01,weatherdisplay,2016-12-09 23:00:00,
2016-12-10 00:30:00,31.2,30.0,30.45,South,190,0.0,0.0,94,0.00,,,0.00,weatherdisplay,2016-12-09 23:30:00,
2016-12-10 01:00:00,30.5,29.0,30.44,South,190,0.0,0.0,94,0.00,,,0.00,weatherdisplay,2016-12-10 00:00:00,
2016-12-10 01:30:00,29.9,28.0,30.43,South,190,0.0,0.0,94,0.00,,,0.00,weatherdisplay,2016-12-10 00:30:00,
2016-12-10 02:00:00,29.4,28.0,30.43,South,190,0.0,0.0,94,0.00,,,0.00,weatherdisplay,2016-12-10 01:00:00,
2016-12-10 02:30:00,29.0,28.0,30.43,South,190,0.0,0.0,94,0.00,,,0.00,weatherdisplay,2016-12-10 01:30:00,
2016-12-10 03:00:00,29.0,28.0,30.43,South,190,0.0,0.0,94,0.00,,,0.00,weatherdisplay,2016-12-10 02:00:00,
2016-12-10 03:31:00,29.2,28.0,30.43,South,190,0.0,0.0,95,0.00,,,0.00,weatherdisplay,2016-12-10 02:31:00,
2016-12-10 04:00:00,29.4,28.0,30.42,South,190,0.0,0.0,95,0.00,,,0.00,weatherdisplay,2016-12-10 03:00:00,
2016-12-10 04:30:00,29.7,29.0,30.42,SSW,194,0.0,0.0,95,0.00,,,0.00,weatherdisplay,2016-12-10 03:30:00,
2016-12-10 05:00:00,29.9,29.0,30.41,SSW,194,0.0,0.0,95,0.00,,,0.00,weatherdisplay,2016-12-10 04:00:00,
2016-12-10 05:30:00,30.0,29.0,30.40,SSW,196,0.0,0.0,95,0.00,,,0.00,weatherdisplay,2016-12-10 04:30:00,
2016-12-10 06:00:00,30.1,29.0,30.40,SSW,196,0.0,0.0,95,0.00,,,0.00,weatherdisplay,2016-12-10 05:00:00,
2016-12-10 06:30:00,29.7,29.0,30.38,SSW,196,0.0,0.0,95,0.00,,,0.00,weatherdisplay,2016-12-10 05:30:00,
2016-12-10 07:00:00,29.3,28.0,30.40,SSW,196,0.0,0.0,95,0.00,,,0.00,weatherdisplay,2016-12-10 06:00:00,
2016-12-10 07:30:00,29.2,28.0,30.40,SSW,196,0.0,0.0,95,0.00,,,0.00,weatherdisplay,2016-12-10 06:30:00,
2016-12-10 08:00:00,28.9,28.0,30.40,SSW,196,0.0,0.0,95,0.00,,,0.00,weatherdisplay,2016-12-10 07:00:00,
2016-12-10 08:30:00,28.6,28.0,30.40,SSW,196,0.0,0.0,96,0.00,,,0.00,weatherdisplay,2016-12-10 07:30:00,
2016-12-10 09:00:00,28.2,27.0,30.41,SSW,196,0.0,0.0,95,0.00,,,0.00,weatherdisplay,2016-12-10 08:00:00,
2016-12-10 09:30:00,28.2,27.0,30.41,SSW,196,0.0,0.0,96,0.00,,,0.00,weatherdisplay,2016-12-10 08:30:00,
2016-12-10 10:00:00,28.8,28.0,30.41,SSW,196,0.0,0.0,96,0.00,,,0.00,weatherdisplay,2016-12-10 09:00:00,
2016-12-10 10:30:00,29.8,29.0,30.41,SSW,196,0.0,0.0,96,0.00,,,0.00,weatherdisplay,2016-12-10 09:30:00,
2016-12-10 11:00:00,30.7,30.0,30.41,SSW,196,0.0,0.0,96,0.00,,,0.00,weatherdisplay,2016-12-10 10:00:00,
2016-12-10 11:30:00,31.7,31.0,30.40,SSW,196,0.0,0.0,96,0.01,,,0.01,weatherdisplay,2016-12-10 10:30:00,
2016-12-10 12:00:00,32.7,32.0,30.38,SSW,196,0.0,0.0,96,0.01,,,0.01,weatherdisplay,2016-12-10 11:00:00,
2016-12-10 12:30:00,33.9,33.0,30.38,West,265,0.0,0.0,97,0.00,,,0.01,weatherdisplay,2016-12-10 11:30:00,